This is the latest recevied weather packets stored in our database for station/object K8RRT. If no packets are shown the sender has not sent any weather packets the latest 10 day(s).
| Time | Temp. | Humidity | Pressure | Rain* | Wind** | Luminosity | Snow |
|---|---|---|---|---|---|---|---|
| 1778092854 | 12.22° C | 99% | 1007.7 hPa | 1.27 mm | - | 171 W/m² | - |
| 1778092550 | 11.67° C | 99% | 1007.4 hPa | 1.27 mm | - | 129 W/m² | - |
| 1778092246 | 11.67° C | 99% | 1007.4 hPa | 1.27 mm | - | 139 W/m² | - |
| 1778091944 | 12.22° C | 99% | 1007.6 hPa | 0 mm | - | 149 W/m² | - |
| 1778091641 | 12.22° C | 99% | 1007.5 hPa | 0 mm | - | 118 W/m² | - |
| 1778091339 | 12.22° C | 99% | 1007.9 hPa | 0 mm | - | 85 W/m² | - |
| 1778091036 | 12.22° C | 99% | 1007.6 hPa | 0 mm | - | 89 W/m² | - |
| 1778090732 | 12.22° C | 99% | 1007.7 hPa | 0 mm | - | 115 W/m² | - |
| 1778090429 | 12.22° C | 99% | 1007.5 hPa | 0 mm | - | 115 W/m² | - |
| 1778090125 | 12.22° C | 99% | 1007.3 hPa | 0 mm | - | 180 W/m² | - |
| 1778089822 | 12.22° C | 99% | 1007.3 hPa | 0 mm | - | 136 W/m² | - |
| 1778089521 | 12.22° C | 99% | 1007.4 hPa | 0 mm | - | 95 W/m² | - |
| 1778089216 | 12.22° C | 99% | 1007.4 hPa | 0 mm | - | 104 W/m² | - |
| 1778088914 | 12.22° C | 99% | 1007.5 hPa | 0 mm | - | 119 W/m² | - |
| 1778088611 | 12.22° C | 99% | 1007.6 hPa | 0 mm | - | 104 W/m² | - |
| 1778088309 | 11.67° C | 99% | 1007.6 hPa | 0 mm | - | 97 W/m² | - |
| 1778088004 | 11.67° C | 99% | 1007.5 hPa | 0 mm | - | 100 W/m² | - |
| 1778087702 | 11.67° C | 99% | 1007.8 hPa | 0 mm | - | 164 W/m² | - |
| 1778087399 | 12.22° C | 99% | 1007.6 hPa | 0 mm | - | 155 W/m² | - |
| 1778087095 | 12.22° C | 99% | 1007.4 hPa | 0 mm | - | 124 W/m² | - |
| 1778086789 | 12.22° C | 99% | 1007.1 hPa | 0 mm | - | 205 W/m² | - |
| 1778086487 | 11.67° C | 99% | 1007.4 hPa | 0 mm | - | 118 W/m² | - |
| 1778086183 | 12.22° C | 99% | 1007.4 hPa | 0 mm | - | 138 W/m² | - |
| 1778085879 | 12.22° C | 99% | 1007.4 hPa | 0 mm | - | 139 W/m² | - |
| 1778085577 | 12.22° C | 99% | 1007.4 hPa | 0 mm | - | 145 W/m² | - |
* Rain latest hour (hover to see other rain measurements)
** Current wind speed in m/s (hover to see current wind gust speed)